OneWeb SL0301

operational
NORAD ID: 49090 Int'l Des: 2021-075 Owner: ONEWEBN Country: UK Constellation: oneweb
LEOCIRCULARPOLARONEWEB_TYPE

关于 OneWeb SL0301

正在加载描述...

实时位置

正在加载3D地球...

即将过境

高度历史

Altitude vs Time

uPlot chart will show altitude changes over time

两行轨道根数

1 49090U 21075R 25304.30001300 -.00000191 00000-0 -56713-3 0 9996
2 49090 87.8969 36.1230 0001587 114.4191 245.7103 13.12445074204546
Epoch: Oct 31, 2025 • Age: 11 hours

当前状态

高度 1243.6 km
速度 7.23 km/s
星下点 -87.14°S, 42.89°E
发射日期 Aug 21, 2021
运行时间 4.1 years
类型 internet

技术详情

分类 Payload
质量 148.00 kg
干质量 140.00 kg
总质量 148.00 kg
长度 1.30 m
直径 1.00 m
跨度 5.00 m
形状 Trapezoid+2 pan
制造商 ONEWUS
平台类型 ARROW
阶段状态 In Orbit
所有者/国家 ONEWEBN/UK

大型星座

Loading constellations...